Location: Alsip
(41.6689°N, 87.7387°W)
Time: 14:58:42
(UTC+00:00)

Cosmos 1680 Rocket - Pass Details

Date: 14 July 2020
Orbit: 760 x 781 km, 74.1° (Epoch: 13 August)

Event Time Altitude Azimuth Distance (km) Brightness Sun altitude
Rises 02:44:16 0° 193° (SSW) 3,248 6.4 -12.6°
Reaches altitude 10° 02:46:39 10° 191° (SSW) 2,326 5.7 -12.9°
Maximum altitude 02:51:55 75° 107° (ESE) 810 3.5 -13.6°
Drops below altitude 10° 02:57:14 10° 23° (NNE) 2,342 6.3 -14.3°
Sets 02:59:38 0° 22° (NNE) 3,273 7.1 -14.6°
